RH
44 44 44 43 43 44 45 48 51 54 56 60 64 66 69 74 76 75 74 74 77 82 86 89 91 92 93 93 93 93 93 93 94 93 93 93 93 94 95 95 97 100 98 98 100 100 99 100 100 100 98 98 99 100 100 100 100 100 100 100 100 100 99
42 40 40 40 40 40 41 44 47 51 55 60 64 67 71 76 79 78 74 70 70 74 80 84 87 88 89 90 91 93 93 92 92 92 93 93 93 93 93 93 93 94 94 94 97 100 100 100 100 99 96 96 96 96 97 99 99 100 100 99 100 100 100
39 37 37 37 36 36 37 39 43 47 54 62 69 74 77 81 84 83 79 73 69 70 75 79 80 81 82 83 86 88 90 90 90 90 90 91 92 92 93 94 93 93 91 88 88 96 100 99 98 97 95 94 95 93 93 94 94 95 97 98 98 99 99
36 35 35 34 34 34 34 35 39 43 50 60 73 84 87 88 91 91 86 81 78 75 74 76 76 75 75 75 77 80 82 85 86 87 88 88 89 89 90 91 93 94 94 89 84 88 94 97 96 95 94 93 93 92 91 90 88 87 89 89 90 92 94
35 35 34 34 34 33 34 35 36 40 46 53 66 84 95 96 97 97 92 89 89 85 82 79 77 75 73 71 71 72 73 76 79 81 82 84 85 86 86 86 88 90 92 92 88 85 88 92 90 87 87 87 87 86 84 84 83 81 79 79 79 81 84
36 36 36 36 36 36 36 37 37 40 44 48 55 71 89 100 101 99 97 97 95 93 91 87 82 78 77 73 70 68 67 67 70 73 75 78 79 80 82 82 83 84 85 87 88 87 86 86 84 81 79 78 78 77 76 76 76 76 75 73 73 73 74
39 39 39 39 39 39 39 39 40 41 42 47 52 58 71 91 101 101 100 100 99 98 96 91 85 81 79 77 71 65 62 61 63 65 68 72 74 75 76 78 79 79 80 81 82 83 84 83 82 80 77 74 73 74 76 74 72 71 70 70 69 68 68
42 42 42 42 42 41 41 40 40 41 42 45 48 50 62 86 101 100 99 100 100 100 98 92 85 79 79 78 71 62 57 57 59 62 64 67 71 72 71 73 74 75 76 77 77 78 79 78 78 77 75 73 70 70 73 72 69 68 67 67 67 66 64
43 43 42 42 41 41 41 40 39 41 42 42 46 57 76 94 101 100 99 101 100 100 100 92 81 76 77 74 66 60 56 54 57 61 63 65 68 70 71 70 70 72 74 74 74 75 76 74 74 73 70 68 66 65 66 66 67 67 66 64 64 64 62
41 42 41 41 41 40 39 39 39 39 41 42 49 70 93 101 100 100 100 100 100 100 99 91 80 76 73 66 59 56 53 51 52 55 59 63 65 70 77 75 70 70 74 74 73 74 75 74 73 71 69 67 65 63 62 62 63 63 62 60 60 61 59
41 41 43 43 42 41 40 39 39 39 43 45 47 68 96 102 98 101 100 99 101 99 95 90 82 73 63 55 52 52 50 49 48 49 53 57 60 65 74 77 74 73 74 75 77 75 74 75 72 69 69 68 65 62 61 61 60 59 59 58 57 56 55
43 43 45 45 44 44 42 40 41 40 44 47 45 65 96 103 98 101 100 99 101 97 92 86 76 62 51 46 47 48 47 46 46 47 48 52 58 60 63 68 72 77 77 78 82 79 73 75 75 69 68 71 70 65 61 60 59 58 56 56 56 54 51
45 44 46 47 46 47 44 42 44 42 43 47 47 62 90 102 99 100 100 100 100 93 83 72 59 49 44 41 43 44 45 46 45 44 45 51 56 55 55 59 62 67 73 80 88 88 82 85 84 76 74 79 77 69 65 65 63 57 54 53 53 53 50
46 45 47 50 49 50 47 45 45 43 45 49 45 56 86 102 100 100 100 99 92 77 64 54 49 46 43 40 40 40 43 46 43 43 51 61 65 60 56 56 55 58 71 86 96 97 94 97 95 89 88 86 79 78 83 81 68 55 50 50 49 47 46
48 48 49 52 52 53 49 47 48 46 48 48 44 61 94 103 94 93 95 90 76 59 51 50 46 43 41 39 37 36 42 44 43 54 75 88 88 77 66 64 64 66 77 93 102 100 99 101 99 98 100 94 86 89 92 82 64 52 48 47 45 44 43
50 50 51 52 54 55 51 49 50 49 49 48 45 64 93 96 89 92 91 83 68 53 48 48 42 38 39 38 35 36 38 37 47 74 98 101 95 86 78 77 76 75 81 91 96 96 98 100 99 98 99 94 86 83 77 63 52 46 43 42 42 42 41
47 48 50 50 52 54 52 50 50 50 50 47 46 65 92 97 95 98 94 83 70 56 48 45 41 40 41 38 37 37 33 35 60 92 103 96 91 88 86 84 80 77 80 81 79 77 78 81 83 82 79 75 68 62 54 47 44 43 41 42 43 43 40
46 46 48 50 51 53 52 50 50 50 51 47 47 66 90 96 96 98 96 86 70 54 45 43 42 42 43 41 40 37 33 39 62 88 95 92 95 96 94 92 88 83 76 66 62 63 62 62 62 59 55 51 47 43 39 38 44 48 44 44 47 48 42
46 46 46 48 50 51 52 51 50 49 50 48 48 56 71 85 96 101 96 82 62 45 39 41 42 42 44 44 40 37 37 37 48 74 93 98 100 100 95 95 97 92 75 55 47 48 47 45 43 40 38 37 35 36 35 37 47 56 57 57 60 62 57
47 47 46 47 48 48 50 51 50 49 49 48 47 49 57 75 90 89 79 67 52 40 37 39 41 43 45 46 42 40 38 34 48 82 103 101 99 99 94 93 92 83 67 51 42 39 37 36 35 33 34 35 35 37 40 43 55 69 76 78 78 76 74
47 47 46 45 46 46 47 50 51 50 49 48 47 48 52 59 63 60 59 61 55 43 38 41 42 43 47 48 46 43 39 42 67 97 102 95 96 93 84 77 68 55 48 44 40 38 37 37 37 36 36 38 37 39 42 46 60 78 90 92 87 79 72
47 48 47 45 46 46 46 49 51 50 50 49 49 50 51 51 50 50 59 72 69 51 42 45 46 45 48 51 50 48 49 59 76 81 73 71 74 67 57 53 47 41 41 41 39 39 39 38 38 38 38 39 39 40 42 44 54 70 83 87 82 72 61
48 49 48 47 47 48 48 50 51 51 52 52 51 52 52 52 52 51 57 69 70 58 49 49 49 48 51 53 53 51 53 58 58 52 49 53 55 52 49 47 45 43 43 40 39 41 40 38 40 41 40 40 38 38 40 42 45 51 56 58 58 56 53
51 51 51 50 49 49 51 52 53 53 54 55 56 56 55 54 54 54 56 60 64 61 57 54 51 50 52 54 54 53 52 52 49 47 50 51 51 52 53 50 48 47 46 44 42 42 41 40 42 44 44 42 40 39 39 41 43 45 46 47 48 48 50
54 53 54 54 53 52 53 54 54 55 56 58 59 60 59 58 58 59 60 60 61 62 63 61 57 54 53 53 54 54 53 51 50 50 51 52 53 55 55 55 55 53 50 48 45 43 44 43 43 45 47 45 45 44 44 45 45 47 50 53 51 49 48
56 57 56 56 56 56 55 54 54 55 56 59 61 61 61 62 62 63 64 65 65 67 68 68 66 63 59 56 55 56 55 53 52 51 52 53 54 55 56 59 61 60 56 53 49 47 47 45 45 48 49 49 50 49 50 53 52 48 48 50 49 47 45
58 58 59 59 59 58 57 55 54 54 56 59 61 60 62 63 63 64 64 65 67 68 70 70 69 65 61 58 56 57 57 57 55 53 53 53 54 56 58 60 63 64 61 57 54 52 50 48 49 51 50 52 54 52 54 59 57 52 48 48 47 45 42
59 58 60 62 61 60 59 56 54 55 59 62 63 63 64 63 63 64 64 64 66 68 70 70 68 63 61 60 60 59 60 60 59 58 56 55 55 56 58 60 62 64 62 61 61 59 54 50 50 51 53 55 55 55 57 60 60 57 54 52 52 50 45
59 58 61 64 63 63 63 59 56 59 64 66 68 69 69 69 69 69 69 69 72 74 75 74 70 66 64 65 65 64 62 61 61 61 59 57 57 57 57 58 61 62 62 65 68 65 59 55 52 50 52 55 56 56 57 61 63 63 60 57 57 56 53
60 60 63 65 64 65 67 64 62 64 68 70 71 72 73 73 73 74 74 75 79 81 79 75 71 67 65 66 67 67 65 64 65 64 62 60 60 60 59 58 59 60 62 65 69 68 64 60 55 51 51 54 55 55 56 59 62 64 63 62 61 59 58
60 60 63 66 65 66 67 66 66 68 70 72 73 74 75 74 73 74 75 77 82 84 78 73 70 67 65 66 68 67 66 67 67 67 65 64 63 62 61 60 59 61 64 68 70 70 67 63 59 56 53 53 54 53 53 55 58 62 64 64 64 63 62
56 57 60 63 66 67 66 65 66 68 70 72 74 74 75 75 75 75 75 78 83 82 75 71 71 68 66 68 69 67 67 69 69 67 67 67 66 64 64 63 63 64 68 72 72 70 68 65 63 62 59 56 55 53 51 51 54 58 63 65 65 66 65
51 53 56 58 61 64 65 64 66 68 70 71 72 72 72 73 73 74 75 79 82 78 71 69 69 68 67 68 69 68 68 70 69 68 68 69 68 66 65 65 67 69 71 72 71 70 69 67 66 66 64 61 60 59 56 53 52 56 61 64 65 65 64
46 50 53 54 55 59 61 62 65 67 68 70 70 70 72 73 71 69 69 73 76 74 70 69 69 67 67 67 68 68 69 70 69 70 71 70 69 69 68 67 69 72 73 73 74 75 73 71 70 70 69 66 65 65 64 61 59 60 63 65 65 64 62
41 45 49 51 52 54 56 60 63 64 66 68 69 71 74 76 72 66 64 65 68 68 67 68 68 67 66 66 67 67 68 69 69 70 72 72 71 71 70 69 70 71 73 76 79 79 78 77 76 74 73 72 70 69 68 66 65 67 69 70 69 68 65
41 42 45 47 48 51 54 57 60 62 64 66 67 70 75 76 72 67 65 65 64 64 64 64 63 63 63 64 66 66 67 68 68 68 69 71 72 72 72 72 71 71 72 76 80 81 82 82 82 79 78 78 76 74 71 69 68 70 74 75 75 73 71
Wind_Speed
31 31 31 30 29 29 28 28 27 27 27 27 26 26 25 25 25 25 24 24 23 22 22 22 20 20 20 19 19 19 18 17 16 16 15 15 14 13 13 14 13 14 13 8 7 7 8 11 13 12 12 12 10 10 9 8 7 8 8 8 9 10 10
31 31 31 30 30 29 28 28 27 27 27 27 27 26 25 25 25 26 26 26 25 23 23 23 22 21 20 20 20 19 19 19 18 18 16 15 15 14 13 14 14 16 15 12 9 7 7 12 14 12 12 13 13 13 12 10 9 9 8 7 7 7 7
32 31 31 30 30 29 28 27 26 25 26 26 26 26 26 25 25 27 28 29 28 25 23 23 23 23 22 22 21 20 20 20 19 19 18 17 16 15 13 13 13 15 17 17 14 11 12 15 16 14 13 13 13 13 14 14 13 11 10 9 8 6 6
32 31 31 30 30 29 28 27 27 25 24 24 25 25 25 26 26 27 29 30 31 29 26 24 24 24 24 24 23 22 21 21 20 20 20 18 18 17 16 14 13 13 15 18 18 15 15 17 17 17 16 15 13 12 13 14 15 14 12 12 11 8 7
32 31 31 30 30 29 29 28 27 26 25 24 24 24 25 26 26 27 29 31 32 31 29 27 26 25 26 26 26 25 23 23 22 22 22 21 19 19 18 17 15 14 15 16 18 18 17 17 18 18 18 18 18 15 13 12 13 14 14 13 13 11 9
32 31 31 30 30 29 29 28 27 26 26 25 24 24 26 26 27 27 29 30 32 32 31 30 28 27 26 26 26 26 25 24 24 23 23 23 22 21 20 19 18 17 16 16 17 17 18 19 19 19 19 19 20 20 18 14 12 11 12 13 14 13 10
33 32 31 30 30 30 29 28 27 26 26 25 24 24 25 25 26 28 29 31 32 32 32 31 30 28 27 26 26 26 26 26 25 25 24 23 24 23 22 21 20 19 18 18 17 17 18 20 20 19 19 18 18 19 19 18 16 13 11 11 12 13 12
33 32 31 31 30 30 29 29 28 26 25 25 24 23 23 22 25 28 30 31 32 32 33 33 31 29 27 26 25 25 25 26 26 26 25 23 24 25 24 22 22 21 20 20 19 18 19 19 20 20 19 18 19 19 18 18 18 17 15 12 10 12 14
33 33 32 31 30 30 29 29 28 26 25 24 23 22 21 22 25 29 30 31 32 33 33 33 33 31 28 26 25 25 24 24 23 24 25 24 23 24 24 23 23 22 22 21 21 20 20 20 20 21 20 19 20 20 20 19 19 19 19 17 13 11 13
33 32 32 31 31 30 29 28 27 26 24 22 20 20 21 24 27 29 31 32 33 33 33 34 34 32 30 27 26 25 24 23 22 22 22 23 21 21 22 23 23 22 21 22 21 21 21 22 22 22 21 21 20 21 22 22 21 20 20 19 17 12 10
32 32 31 31 31 30 29 28 26 25 23 21 19 18 20 25 29 31 32 33 33 33 34 34 35 34 31 28 26 25 24 23 22 21 21 21 20 19 19 21 22 21 21 20 21 21 20 21 23 22 22 22 21 21 21 22 22 23 22 21 20 17 12
32 31 31 31 30 30 29 28 26 25 23 21 19 17 20 26 30 31 32 33 33 33 34 35 36 34 31 28 26 25 24 23 21 20 20 20 20 19 19 20 20 19 18 18 19 20 20 20 22 22 21 22 22 21 22 22 22 23 22 21 21 20 16
31 30 30 30 30 30 29 27 26 25 24 22 19 17 19 25 30 31 32 33 34 34 34 34 34 33 30 28 25 24 23 22 21 20 19 19 20 19 19 19 17 16 15 15 16 18 19 19 20 21 20 21 21 22 22 23 23 23 21 20 21 20 17
31 30 29 29 29 30 29 26 25 24 23 22 20 18 18 24 29 31 32 33 34 34 33 31 31 31 30 27 25 23 22 21 20 18 18 18 20 20 19 17 15 13 12 11 12 15 16 17 19 20 20 20 20 21 22 23 25 24 23 22 22 20 17
32 31 29 28 28 29 29 25 23 23 23 22 21 18 19 24 28 29 31 33 33 32 30 29 28 29 28 27 25 22 20 20 18 16 17 20 23 22 19 16 13 12 10 9 9 12 13 14 16 17 18 20 21 21 22 24 25 24 24 24 23 21 17
33 32 31 29 28 29 29 25 22 21 22 21 20 19 20 24 26 28 30 31 32 30 28 27 27 27 27 27 25 21 20 20 16 14 19 24 24 21 18 15 14 13 13 12 13 14 15 17 19 20 21 22 22 23 25 26 24 22 23 24 24 22 17
33 32 31 30 29 29 29 27 23 21 21 20 19 18 21 24 25 26 28 30 31 30 27 25 25 26 26 25 23 21 19 17 14 16 22 24 22 19 19 18 18 19 19 19 20 20 21 22 23 24 24 23 22 24 26 25 23 21 21 22 22 22 19
33 31 30 29 29 28 29 28 25 22 21 20 17 17 20 23 24 25 27 30 31 29 26 24 23 23 23 22 21 19 17 16 16 18 20 21 21 22 22 23 24 24 24 23 23 22 21 22 22 23 24 23 22 22 22 21 20 19 19 20 21 22 21
32 32 30 28 28 27 27 27 25 22 21 20 18 17 19 21 22 24 28 30 30 29 26 22 20 20 20 21 20 17 15 16 15 15 18 22 24 26 26 26 26 27 27 27 25 22 22 21 21 21 21 21 20 19 18 18 18 18 18 19 19 20 21
32 32 31 29 28 27 26 26 25 23 21 20 19 18 18 20 22 26 29 29 29 27 24 21 19 19 19 20 20 17 15 13 10 12 20 25 26 28 29 27 27 27 29 29 27 25 24 22 20 19 19 19 17 16 15 16 16 17 17 18 19 19 20
32 32 31 29 28 27 26 24 24 24 22 21 20 18 18 21 24 25 26 26 27 26 23 20 20 20 20 20 20 18 15 12 9 14 24 28 27 27 27 27 27 27 26 27 26 24 23 22 19 18 17 17 16 15 15 15 16 17 18 18 20 20 21
32 32 32 30 28 27 26 24 24 24 23 22 22 20 20 22 23 23 23 24 26 25 22 20 20 21 21 21 21 20 18 15 16 20 25 25 23 23 23 23 25 25 23 24 24 23 22 20 18 17 16 15 16 15 16 16 16 18 19 19 20 21 22
32 32 33 32 30 28 26 25 24 24 23 23 22 22 22 23 23 23 22 23 25 26 23 20 20 21 21 22 22 22 21 21 22 22 22 22 22 22 22 22 23 22 22 22 22 22 21 18 17 17 16 16 16 16 16 17 17 17 18 19 19 19 20
32 32 33 34 32 30 27 26 25 24 23 22 22 22 22 23 23 23 23 24 26 27 25 23 21 20 21 22 23 23 23 23 23 23 22 22 23 22 22 21 21 20 20 20 20 20 20 18 16 16 17 17 16 16 16 16 16 17 17 17 17 17 18
32 33 33 34 33 32 30 28 27 25 23 22 22 22 22 23 23 23 24 25 26 27 27 26 24 22 21 22 23 24 24 24 23 22 22 22 23 22 22 21 20 20 20 20 19 19 19 18 16 16 17 17 17 17 16 15 16 16 16 16 17 17 16
33 33 33 33 33 33 31 29 28 26 24 22 23 23 23 24 24 24 24 25 26 26 26 26 26 25 24 23 22 23 24 23 22 21 22 22 22 22 22 21 20 20 20 20 20 19 19 18 16 16 17 17 17 17 16 16 17 17 17 17 19 18 16
33 33 33 33 33 33 32 31 29 26 24 23 24 25 25 26 26 26 25 26 26 26 27 27 28 27 26 24 23 22 22 22 21 21 21 21 22 22 22 21 21 21 22 21 20 20 20 18 17 17 17 16 17 17 16 16 18 18 18 18 19 19 17
34 33 33 33 34 34 34 33 30 27 26 26 26 27 27 28 28 28 28 29 28 29 30 30 30 30 29 27 25 24 23 22 21 21 21 21 22 23 22 22 22 22 22 21 20 21 21 19 18 18 18 18 18 17 16 16 17 18 18 18 19 19 18
34 33 33 33 34 34 35 36 33 29 28 28 27 27 28 29 30 30 30 31 30 31 32 33 33 33 32 30 29 28 26 24 22 21 21 20 21 22 23 23 23 23 22 20 20 20 21 20 20 19 19 19 19 18 16 16 17 18 18 18 19 19 18
34 33 33 34 34 32 33 35 34 32 30 29 28 28 28 29 29 29 30 30 30 31 33 34 35 35 33 32 31 30 29 27 25 23 22 21 20 21 22 23 23 23 22 21 20 21 21 21 20 20 19 19 20 19 18 17 18 19 19 19 19 19 18
32 32 31 33 34 33 32 33 33 31 31 30 29 29 29 30 30 29 30 30 30 32 35 36 36 36 34 32 32 31 30 28 27 26 25 23 21 21 21 22 22 22 21 21 21 21 21 21 20 20 19 19 20 20 19 19 18 18 19 19 19 19 19
32 31 30 31 32 33 33 33 31 31 30 30 30 30 30 30 30 30 30 30 30 33 36 37 36 36 35 33 33 32 30 29 29 28 26 25 24 23 22 21 21 21 21 22 22 22 21 20 19 19 19 18 19 19 19 19 19 18 19 19 19 19 19
33 32 31 31 30 31 32 32 31 30 30 30 30 30 31 31 32 31 31 31 32 35 37 36 36 36 35 33 33 32 31 30 30 29 27 27 26 25 23 21 21 21 22 23 23 22 21 20 19 19 19 18 18 19 19 19 19 19 19 20 20 20 19
36 34 33 33 31 31 31 31 30 30 29 29 30 30 31 32 33 33 32 32 33 36 37 36 36 36 35 34 33 32 31 31 30 29 29 28 27 26 25 23 21 22 23 23 22 22 22 21 20 20 20 19 19 19 19 20 20 19 20 20 20 20 20
39 37 36 35 34 32 31 30 30 29 29 29 30 30 30 32 35 36 34 33 33 35 35 35 36 35 34 34 33 32 31 31 30 29 29 29 28 27 26 24 24 24 24 23 23 24 23 23 22 21 21 21 21 20 21 21 20 20 20 20 20 20 19
43 40 38 37 35 33 32 31 31 31 30 30 30 30 30 33 36 36 36 35 35 35 35 35 35 34 34 33 32 32 31 30 30 29 29 29 29 28 27 26 25 25 25 25 25 25 25 24 24 23 22 22 22 22 22 22 21 21 21 20 20 20 19
Wind_Direction
322 322 322 321 321 321 320 319 318 317 315 314 314 314 314 315 314 314 314 315 318 320 319 318 318 317 315 315 315 314 313 312 313 311 309 310 307 307 309 305 310 308 288 279 307 312 313 305 296 299 298 291 293 294 291 289 280 273 271 268 269 270 268
319 319 318 318 317 317 316 315 314 314 312 312 312 311 312 312 312 313 314 314 316 318 320 320 320 319 317 316 315 314 314 312 312 311 309 310 309 306 312 310 308 311 302 289 293 307 307 301 302 307 306 303 304 303 303 302 297 291 281 275 277 279 278
318 317 316 315 314 313 312 311 310 310 308 308 308 309 309 310 310 312 314 315 315 316 318 320 321 322 320 319 318 315 314 313 312 312 310 310 311 308 309 312 309 308 305 298 298 306 306 299 300 303 305 311 316 314 313 310 305 304 298 292 291 293 295
316 315 313 312 311 310 309 308 307 306 304 302 302 303 306 307 308 311 313 314 315 315 317 318 321 323 322 321 320 318 316 315 313 312 311 309 310 309 307 308 309 307 305 301 297 300 303 299 297 300 301 305 308 308 311 313 311 309 306 305 304 304 309
314 313 312 310 310 309 308 307 306 305 303 300 296 295 298 301 304 309 312 312 313 314 315 317 319 322 323 321 320 319 318 317 316 313 312 311 309 308 307 306 306 305 303 302 298 296 297 294 293 295 298 301 302 299 295 298 303 305 308 310 309 309 312
312 312 311 309 309 308 307 306 305 304 303 300 297 293 291 294 300 308 311 310 310 311 313 315 316 319 321 321 320 319 318 318 317 314 313 313 311 309 309 307 306 305 302 301 299 296 294 293 293 293 294 298 302 303 300 293 286 289 298 304 305 304 306
311 311 310 309 308 307 306 305 304 303 302 300 299 295 291 293 301 308 309 307 307 309 309 311 313 316 319 319 318 318 318 317 316 314 312 313 312 309 310 310 307 306 304 302 302 299 296 296 298 298 297 299 301 304 303 298 292 285 281 290 300 300 296
311 310 309 308 307 306 305 304 303 303 302 300 298 297 296 300 306 307 305 305 306 306 307 308 310 313 316 316 315 315 315 315 313 312 310 310 310 308 308 309 308 307 307 305 304 304 302 300 299 300 300 299 298 297 295 296 300 299 292 291 303 306 298
311 309 308 307 305 304 303 302 302 302 302 301 302 303 306 308 308 305 303 304 304 304 305 306 307 310 313 313 312 311 309 309 308 306 306 306 306 306 307 307 307 308 309 308 308 307 307 306 305 306 306 305 304 304 303 303 305 304 300 298 301 307 304
311 310 309 308 306 305 303 302 302 302 301 302 303 305 310 310 307 304 302 302 302 302 304 305 305 308 310 310 309 306 304 303 301 299 298 299 299 301 302 303 304 307 308 308 310 310 311 312 310 312 314 313 310 309 308 309 307 304 302 301 299 296 296
313 312 312 311 309 307 306 304 304 303 302 300 296 299 308 308 304 302 300 299 300 301 302 303 304 306 308 308 306 303 302 300 298 295 292 291 292 290 291 295 301 304 306 307 308 308 311 312 310 311 314 313 311 310 309 309 309 308 308 309 307 300 295
315 314 314 313 311 309 308 307 307 305 304 301 296 297 305 305 301 299 299 298 298 299 300 301 303 303 305 305 303 302 302 299 297 294 290 287 286 284 283 287 293 298 301 302 304 305 308 310 308 308 310 311 312 310 309 308 307 307 308 312 312 308 305
317 316 315 314 313 311 310 310 310 307 305 304 299 295 301 303 300 299 299 297 296 297 298 299 300 301 301 301 301 300 299 298 296 293 288 284 283 284 284 285 287 291 294 296 301 306 310 310 306 305 306 309 311 312 311 309 304 303 306 309 307 308 312
317 316 315 315 313 312 312 313 312 308 307 305 300 297 302 302 297 296 296 296 295 296 297 297 298 299 300 299 300 299 298 297 295 292 291 291 290 291 292 290 291 292 290 292 302 309 312 309 304 304 306 307 310 314 312 305 301 303 307 307 303 306 314
316 315 315 315 314 312 311 313 313 308 305 303 299 300 302 295 290 291 294 295 295 296 298 299 298 298 298 298 298 299 297 294 293 299 303 301 299 299 298 295 295 293 283 278 293 301 301 297 296 300 304 303 304 307 300 294 298 305 306 304 302 304 308
317 316 316 316 315 312 310 312 313 307 303 301 300 300 300 294 291 293 295 295 296 298 299 300 299 298 298 299 299 298 293 289 293 306 305 297 294 297 297 295 294 289 278 270 271 271 268 271 277 282 286 290 293 294 291 292 297 300 298 299 300 300 299
317 318 318 317 316 313 311 312 313 309 303 300 299 301 302 299 295 295 296 297 298 299 300 300 301 301 300 300 300 299 293 287 290 297 295 291 293 297 298 297 293 288 283 277 273 271 269 270 274 277 280 284 286 288 291 295 297 295 294 296 297 297 294
318 318 318 317 315 314 312 313 314 311 305 299 296 298 300 299 299 299 298 296 296 299 302 303 302 301 301 302 302 301 296 287 281 286 292 297 301 300 297 297 295 292 289 284 280 280 281 280 281 282 283 285 287 289 291 293 293 293 292 292 293 294 295
318 317 317 315 314 313 311 312 312 310 305 300 296 294 296 300 303 299 293 292 296 300 304 304 303 301 303 306 305 305 302 289 282 295 306 303 297 294 293 294 295 293 291 290 291 293 291 288 286 285 285 286 288 289 288 287 287 287 287 288 289 292 296
317 316 316 315 314 313 312 311 311 310 307 303 300 297 297 298 295 290 289 292 296 299 302 304 303 302 305 307 306 306 302 292 295 313 304 292 286 288 291 293 292 290 291 294 299 300 298 296 295 292 290 288 286 284 280 276 277 279 280 283 285 288 292
316 314 314 315 315 314 313 313 312 311 309 307 306 304 298 293 290 290 293 296 295 297 303 305 302 300 303 304 304 303 300 295 295 291 282 278 281 285 287 289 289 290 293 295 297 298 298 299 299 294 289 286 283 279 274 269 267 270 273 277 282 285 286
315 314 313 314 315 314 314 314 313 311 312 312 312 309 301 295 293 293 294 294 293 296 300 301 297 297 299 300 300 299 298 291 282 276 274 278 284 285 284 286 288 290 292 293 294 296 297 297 296 291 286 283 280 277 273 269 265 265 268 272 277 281 284
315 314 313 314 314 315 315 314 312 312 313 314 313 308 303 299 297 295 291 289 290 293 296 297 294 292 294 295 295 293 292 288 284 283 285 288 288 288 288 287 287 288 289 289 290 292 293 293 293 290 286 283 281 279 278 276 273 269 269 268 269 273 276
315 315 314 314 314 315 315 313 312 311 312 312 309 305 301 299 298 296 293 290 289 292 296 298 295 291 291 292 292 291 290 290 290 292 292 291 290 291 291 289 287 287 286 285 286 287 287 288 288 288 287 286 285 284 283 282 281 279 278 276 273 271 270
315 314 313 313 314 314 314 313 311 310 311 310 306 302 299 298 296 295 294 293 293 294 296 299 299 297 294 292 292 292 291 291 292 292 291 291 291 291 291 289 288 285 283 283 283 282 282 283 283 283 286 287 287 287 285 283 280 279 280 281 279 275 273
314 313 313 313 313 313 312 312 312 311 311 310 305 301 299 297 296 295 294 294 294 295 296 298 299 298 296 293 291 290 290 290 290 289 287 287 288 289 290 289 285 283 282 282 282 281 280 281 281 281 282 284 285 285 284 283 280 278 278 280 280 278 274
313 312 313 313 312 311 311 311 312 313 314 311 306 303 301 299 297 296 295 294 294 296 296 297 297 297 297 296 294 292 291 290 289 286 284 283 283 283 284 283 280 278 279 280 281 282 281 281 281 281 281 282 280 280 280 280 281 282 283 284 284 284 280
311 312 313 312 311 311 311 311 313 317 316 312 308 306 304 302 301 300 300 299 300 301 301 300 300 300 301 301 301 299 297 294 291 287 283 280 279 278 278 278 276 275 275 277 280 281 281 282 281 281 281 281 279 277 277 278 280 283 286 287 288 288 287
311 313 314 311 310 312 311 311 314 317 315 311 309 307 304 303 303 302 301 301 301 301 300 299 299 299 300 302 302 301 300 298 295 291 284 280 278 277 276 276 275 274 274 274 275 277 278 279 278 277 279 280 280 279 279 280 282 285 286 287 287 288 288
311 312 312 310 310 310 309 309 312 314 311 308 306 303 300 299 298 297 296 297 297 295 294 294 295 297 299 300 301 301 300 300 299 295 290 285 279 276 275 274 273 273 273 272 272 273 274 274 274 274 275 277 279 280 281 281 283 286 287 288 288 288 288
310 311 311 310 309 309 308 307 308 309 307 305 303 300 298 296 295 293 293 293 292 290 289 290 292 295 297 298 299 299 299 299 298 297 294 291 285 279 276 274 273 272 271 271 271 271 271 272 273 274 274 275 278 280 281 282 284 287 288 289 289 289 289
312 312 312 310 309 308 307 307 307 306 304 302 300 298 296 295 293 292 291 290 287 285 286 289 291 293 295 296 295 296 297 297 295 294 294 292 289 284 279 276 274 272 269 267 268 270 271 272 272 273 274 275 277 279 281 282 283 285 287 287 287 288 289
315 316 315 312 310 308 307 306 306 305 302 299 297 295 294 293 292 290 288 287 284 283 286 289 290 291 293 293 293 294 294 293 293 292 292 290 289 287 284 280 275 270 266 265 266 268 270 270 270 271 273 275 277 280 280 280 279 280 280 282 283 284 285
319 318 316 315 313 310 308 307 306 303 300 297 295 294 293 292 290 289 287 285 284 284 287 289 289 290 291 291 291 292 292 291 291 290 289 288 287 287 285 281 275 269 265 265 266 267 268 269 269 270 272 274 275 276 276 276 277 275 274 275 277 277 279
319 319 317 315 314 313 312 310 306 303 299 297 294 294 293 290 288 289 289 288 286 286 287 287 288 288 289 289 289 289 289 288 288 287 286 286 285 284 283 280 275 270 267 265 265 266 267 268 270 270 272 274 275 275 274 274 273 272 271 272 273 275 276
317 318 317 315 315 316 314 311 307 303 300 297 295 294 293 289 288 289 290 290 288 288 288 288 288 288 288 288 288 287 287 286 285 284 283 282 281 280 279 277 274 271 268 266 264 264 266 268 270 271 273 274 274 274 274 274 272 270 268 268 270 272 274